Theta_e
306 306 306 306 306 306 306 306 306 305 304 301 298 301 302 303 301 315 321 320 315 304 295 296 292 293 297 302 302 304 302 299 301 298 295 294 297 296 295 294 292 295 292 292 290 291 286 289 288 290 291 293 298 299 301 302 301 298 291 295 295 300 286 281 284 288 291 293 297 297 297 296 292 292 293 291 288 289 286 284 286 281 283 280 279 276 280
307 306 306 306 306 306 306 306 306 306 304 301 300 300 300 301 302 307 317 319 315 301 287 286 287 294 299 299 299 303 301 299 299 298 297 295 294 292 292 295 297 292 295 292 289 291 279 292 288 286 292 289 300 299 299 303 296 295 293 290 296 284 285 285 278 279 283 285 290 292 295 294 290 289 291 293 292 292 291 290 290 282 283 283 279 275 280
307 306 306 306 306 306 306 306 306 306 305 304 300 297 299 299 305 306 310 314 312 297 299 294 289 294 295 296 295 296 300 302 300 298 298 298 295 294 287 293 296 295 296 293 293 293 290 284 290 291 291 292 298 299 299 299 296 300 301 301 299 288 286 284 276 274 273 274 274 277 282 286 289 291 292 293 292 291 288 282 284 279 284 285 280 280 287
307 306 306 306 306 306 306 305 305 305 305 305 301 300 299 301 289 300 301 306 305 301 305 301 296 293 294 288 295 298 296 299 298 299 299 298 299 294 296 294 297 294 292 288 290 289 294 289 286 287 288 292 296 298 298 298 300 302 302 301 298 288 291 287 284 280 278 281 284 290 292 289 285 289 291 291 293 293 291 288 283 280 284 282 284 285 286
306 306 306 306 306 306 306 305 305 305 305 305 300 301 301 303 296 292 288 298 301 300 301 299 299 291 298 288 297 294 297 298 300 304 294 299 298 297 295 295 286 284 285 288 288 291 286 292 291 290 291 292 293 297 298 298 301 303 302 301 294 289 284 287 288 287 287 289 289 291 292 288 289 289 289 291 291 291 289 284 283 289 284 280 287 289 286
306 306 306 306 306 306 306 305 305 305 305 305 304 300 304 293 298 301 301 293 288 291 291 300 298 301 299 294 300 297 295 295 292 299 300 301 298 292 296 296 295 289 285 284 280 288 287 289 284 292 292 291 294 293 297 296 301 302 299 301 295 289 282 289 289 288 290 291 290 291 291 290 291 291 290 289 291 290 287 287 290 289 283 281 287 289 287
307 306 306 306 306 306 306 306 306 305 304 304 303 299 301 301 299 300 301 292 296 296 299 301 299 298 298 295 298 293 294 293 297 296 297 298 295 297 283 290 294 290 293 287 284 287 283 280 290 288 289 291 290 289 293 297 300 299 297 297 296 289 283 288 290 288 289 290 290 291 290 290 287 290 290 291 291 290 290 289 290 290 287 289 289 289 289
307 306 306 306 305 305 305 305 306 305 304 305 306 299 296 294 293 292 298 298 296 299 299 299 298 294 299 289 296 296 295 293 296 298 296 289 293 296 292 293 293 294 294 291 285 283 287 287 284 292 291 290 291 289 291 289 294 295 294 297 298 291 284 292 289 285 286 289 291 290 291 289 287 289 290 290 290 290 290 290 290 291 289 290 290 288 287
306 306 306 305 305 305 305 305 306 305 304 304 303 299 299 298 302 300 294 290 295 297 298 297 296 292 294 291 296 297 296 295 296 296 299 296 294 295 292 294 294 295 293 289 289 290 291 291 291 293 293 287 294 287 289 292 288 291 291 294 296 292 284 292 288 282 283 288 289 289 289 286 285 286 288 288 288 286 287 286 290 288 286 287 287 285 286
306 306 306 306 306 305 305 305 306 305 304 303 302 297 300 300 302 302 297 287 296 293 297 297 296 289 296 298 296 295 295 297 297 291 298 300 300 299 298 296 294 292 292 291 293 296 296 294 295 295 294 295 294 294 293 292 289 288 289 292 289 292 288 284 284 282 283 287 289 288 285 284 282 284 287 289 289 290 291 291 292 292 290 284 284 285 291
306 306 306 306 306 306 305 305 305 305 304 300 299 298 299 296 295 296 297 288 289 294 294 293 294 298 298 299 296 298 297 297 298 291 290 298 299 301 299 297 294 291 291 295 301 299 297 296 296 296 295 294 293 293 293 293 293 292 291 291 291 293 291 284 286 281 282 287 288 286 282 276 279 289 293 292 288 289 287 287 291 294 290 287 291 292 294
306 306 306 305 306 305 305 305 305 306 304 302 302 301 301 302 299 297 293 287 287 295 293 290 294 296 296 298 298 296 296 296 296 299 294 296 298 300 299 297 297 287 298 300 298 297 298 298 297 296 295 294 294 294 293 292 293 294 295 293 291 291 290 286 289 283 282 285 286 282 277 279 290 293 296 295 293 293 291 291 293 293 293 293 292 294 294
306 306 306 305 305 305 305 305 305 305 305 303 303 299 302 304 299 296 295 292 287 292 289 292 296 298 298 297 295 296 297 298 299 300 298 296 296 298 299 297 296 297 301 297 297 295 291 289 291 293 294 296 296 295 293 292 293 296 299 299 294 287 286 284 285 284 284 282 282 275 277 286 292 295 296 297 296 293 291 288 290 292 292 292 291 294 295
306 306 306 305 305 305 305 305 305 305 305 304 301 302 303 301 296 295 294 288 287 293 294 292 295 293 294 295 295 296 298 298 298 298 295 298 296 296 299 299 298 299 298 298 295 293 287 287 284 285 288 292 295 293 294 294 294 295 299 299 298 294 288 283 281 286 279 280 280 281 284 286 288 289 291 292 288 289 287 283 288 291 292 293 292 294 295
306 306 306 305 305 305 305 305 305 305 305 305 302 303 302 301 300 297 297 294 286 289 293 286 290 293 294 294 295 293 294 295 294 292 297 299 297 299 299 301 301 300 300 296 290 292 286 285 281 280 283 283 281 283 295 293 297 299 298 296 297 295 286 287 284 282 284 281 279 279 279 275 280 289 294 297 297 295 293 290 285 291 292 294 295 294 295
306 306 305 305 305 305 305 305 305 304 304 305 303 303 304 303 303 301 297 293 289 284 290 296 297 295 293 293 295 294 290 289 291 293 292 294 296 298 300 301 301 300 298 297 293 288 285 282 279 281 279 282 288 287 283 292 290 296 298 298 297 296 294 291 284 282 283 283 279 277 277 281 288 290 293 295 296 295 295 288 282 290 293 295 295 294 295
307 306 306 305 305 305 306 305 304 304 304 304 301 302 303 306 303 299 296 295 293 286 296 297 299 298 292 292 294 292 293 288 292 287 285 289 293 295 298 300 300 299 298 294 292 287 283 282 285 284 285 290 285 283 289 286 284 286 294 296 296 291 287 285 283 281 283 283 280 278 281 281 289 293 294 294 295 296 289 277 278 290 293 294 294 294 295
307 306 306 305 305 305 305 305 305 304 304 305 302 301 302 308 306 303 298 294 288 288 296 299 295 292 291 292 290 294 296 295 295 295 290 292 293 294 295 296 294 299 300 288 288 284 282 282 280 281 280 291 290 290 279 285 281 281 283 287 286 285 284 283 282 282 283 282 280 281 281 288 294 293 295 295 296 292 281 276 284 293 294 295 294 294 295
307 307 306 306 305 305 305 305 305 305 304 304 303 302 302 306 306 304 298 295 292 286 295 300 300 297 299 301 297 297 297 296 295 288 286 287 291 296 295 296 298 287 294 286 288 283 282 282 290 286 282 284 289 282 287 282 282 287 287 283 283 282 285 284 284 282 280 281 279 279 281 288 293 295 296 296 291 280 279 289 294 294 294 295 295 294 295
307 307 307 306 306 305 305 305 305 305 304 305 304 299 302 305 307 305 298 293 294 292 295 296 297 295 298 294 292 292 293 294 295 292 290 285 294 295 291 287 292 293 289 291 281 286 283 280 283 288 283 282 286 289 284 285 289 286 287 289 284 285 282 281 281 282 283 281 278 279 277 287 295 294 292 294 284 285 293 293 293 295 294 294 294 295 295
307 307 307 307 306 306 305 306 306 305 305 305 304 300 299 307 307 307 306 300 293 288 290 300 300 297 297 296 297 297 295 292 293 291 293 292 295 290 281 282 287 288 284 286 282 282 283 281 285 284 288 286 287 287 281 281 286 293 293 289 289 290 281 282 284 288 281 280 279 279 285 290 296 294 284 289 291 293 294 293 291 293 294 294 294 295 296
307 307 307 307 307 306 306 305 306 306 306 305 304 302 298 303 307 308 306 303 295 290 292 298 299 298 299 300 300 300 299 298 299 299 293 288 294 292 290 292 292 292 294 293 289 285 287 288 288 283 282 284 289 282 286 280 279 286 293 291 281 291 287 288 283 289 283 283 286 292 295 293 294 295 292 293 294 295 294 294 293 292 293 296 295 294 296
307 307 307 307 307 307 306 306 306 306 306 305 304 300 298 302 304 308 305 297 299 299 300 298 299 300 301 302 303 304 303 304 302 301 300 292 286 292 291 290 292 299 299 297 290 288 288 287 281 288 284 285 284 283 286 286 283 287 283 292 291 297 297 296 291 290 296 294 295 294 293 293 293 294 295 293 294 295 294 293 292 293 294 296 295 295 296
307 307 307 307 307 307 306 306 306 306 306 306 304 301 300 303 304 303 301 299 295 289 293 297 294 288 296 298 303 305 303 303 303 303 304 300 287 285 293 296 298 298 295 296 297 290 288 286 287 289 283 287 289 283 280 280 281 288 288 286 295 295 295 292 287 293 289 284 293 291 291 292 293 293 294 294 294 294 294 293 293 294 295 295 296 296 296
306 306 307 306 307 307 306 306 306 306 306 306 305 304 303 301 302 302 297 289 289 289 285 287 289 297 300 304 305 304 304 305 306 304 303 302 298 292 290 298 300 295 292 295 297 293 287 285 287 287 282 290 291 282 288 284 284 292 284 286 288 287 296 291 292 291 287 285 290 291 292 292 294 292 291 291 293 294 294 294 294 294 295 295 295 296 295
306 306 306 306 306 307 307 306 306 306 306 306 305 301 300 299 304 306 302 299 297 294 286 286 292 301 303 301 299 301 304 304 303 303 303 303 302 300 298 299 299 302 299 298 297 290 287 286 286 285 284 285 294 286 285 289 289 292 288 289 293 293 296 284 289 286 287 290 291 291 291 292 292 292 292 292 293 293 293 294 294 294 293 293 294 295 296
306 306 306 306 306 306 307 306 306 306 306 306 305 303 301 302 304 303 300 298 292 288 288 286 292 298 300 296 300 302 303 303 303 302 303 303 302 301 299 298 295 295 295 294 295 291 288 287 285 284 288 287 292 290 291 289 289 286 287 292 295 293 288 291 288 282 282 282 286 289 283 282 288 290 292 292 293 293 293 293 293 293 292 293 293 293 295
306 306 306 306 306 306 306 306 306 305 306 306 305 304 303 301 302 304 304 302 295 288 287 287 289 293 299 296 300 302 303 303 302 302 301 302 302 301 299 298 296 295 294 292 286 288 288 287 287 287 290 292 290 287 293 292 292 290 289 290 293 289 290 289 284 284 283 288 291 290 289 288 289 291 293 293 293 293 292 292 292 292 293 293 293 292 293
306 306 306 306 306 306 306 306 306 305 306 305 304 303 302 303 303 304 304 305 302 296 292 291 294 292 286 293 301 299 301 302 301 301 301 300 300 299 298 298 296 295 296 293 289 288 286 286 288 287 287 294 291 286 289 282 282 283 289 295 295 294 297 294 292 291 291 292 291 290 288 287 289 292 293 293 293 293 292 293 293 292 293 293 293 292 292
306 306 306 306 306 306 306 306 306 306 306 305 302 298 292 295 303 302 304 304 303 300 289 286 284 287 297 297 296 298 299 301 302 302 301 299 298 297 298 297 297 297 296 289 287 285 285 286 286 292 294 298 290 285 283 284 283 289 295 295 297 297 295 294 294 290 288 291 291 291 291 291 293 293 293 293 294 294 292 292 292 292 293 294 293 292 293
306 306 306 306 306 306 307 307 306 306 305 302 299 290 288 287 298 306 304 305 305 299 289 288 286 291 289 296 296 296 298 300 300 300 300 299 298 298 299 298 298 298 289 290 288 285 287 284 286 288 294 295 291 286 285 285 284 288 294 295 295 295 293 292 293 294 292 291 292 292 292 292 293 292 291 292 292 292 292 292 293 295 294 294 292 292 292
306 306 306 306 306 306 306 307 306 305 304 300 296 294 296 298 301 305 305 306 304 297 289 285 285 285 285 290 297 300 300 300 300 301 300 300 297 298 298 298 296 299 294 289 288 288 285 286 288 290 290 295 293 288 289 286 284 288 293 295 295 294 294 293 293 293 293 293 291 289 289 289 291 289 288 291 291 291 291 291 292 292 294 293 293 292 292
306 306 306 306 306 306 306 306 306 305 303 304 306 303 302 303 305 306 305 304 300 294 295 287 284 285 284 288 296 297 300 300 298 299 297 300 297 298 294 299 299 298 301 292 287 285 290 287 286 287 292 296 288 287 288 285 287 293 295 295 294 294 294 293 293 293 292 291 291 286 286 288 290 291 291 291 291 291 290 290 291 291 291 290 290 290 290
306 306 306 306 306 306 306 306 306 306 305 302 297 299 303 304 305 305 305 303 297 296 291 286 284 284 284 293 288 296 301 295 296 297 289 299 301 298 292 296 297 290 294 289 288 289 290 290 286 286 292 288 292 288 285 288 293 293 295 294 293 292 291 291 291 290 290 290 291 292 291 291 291 291 291 291 290 291 291 291 290 289 289 289 289 289 290
306 306 306 306 306 306 306 306 304 301 298 299 300 303 303 304 304 305 303 299 289 286 286 286 286 283 283 284 284 290 300 297 293 297 290 295 302 297 298 290 291 288 289 299 288 286 286 287 294 286 284 290 287 283 283 290 291 292 291 291 291 290 290 288 289 289 290 291 291 291 291 290 289 288 289 289 289 290 289 289 289 289 288 288 289 289 289
305 306 306 306 306 306 305 304 302 299 296 296 299 304 304 305 305 305 304 304 296 289 286 285 286 283 285 282 283 289 300 293 297 298 297 296 297 300 298 292 286 290 296 291 285 290 286 294 291 284 286 285 284 286 288 292 292 291 290 290 290 290 290 289 289 289 289 290 291 291 292 291 288 288 288 289 289 289 288 288 288 289 288 287 288 289 288
305 305 306 306 305 302 297 295 302 301 299 303 305 306 305 304 304 303 301 298 300 299 290 286 284 285 287 285 287 289 296 285 293 291 296 291 289 292 293 288 287 289 289 286 286 285 291 297 288 284 284 284 285 290 291 291 290 289 289 290 291 291 290 289 290 289 288 289 290 290 289 288 288 288 287 287 287 288 287 287 288 287 286 287 288 288 288
305 305 304 300 298 291 290 293 299 304 306 305 304 299 297 298 288 289 291 289 293 295 289 290 284 288 292 288 284 295 293 288 294 288 287 292 289 288 290 288 287 288 282 284 288 295 290 288 286 286 285 291 292 292 292 291 291 292 290 291 290 290 290 290 290 288 286 286 285 286 287 286 286 286 286 286 286 286 287 288 289 289 289 288 288 289 288
304 302 300 300 295 290 291 297 305 306 303 303 300 289 286 290 286 285 285 287 288 286 288 287 285 289 288 287 288 295 293 288 286 290 286 294 289 286 289 284 288 288 284 283 286 297 284 285 286 286 285 289 289 289 292 291 291 292 292 291 291 290 290 290 291 289 287 286 286 287 286 285 284 285 286 286 286 287 288 288 288 289 288 288 288 288 288
300 296 293 293 292 293 302 304 305 300 296 288 289 288 284 287 284 283 288 284 284 286 288 283 289 289 290 287 286 287 296 291 285 285 287 290 297 286 289 287 288 285 282 281 283 292 283 281 284 285 284 288 288 290 291 292 291 291 291 291 291 292 291 291 290 290 289 289 289 288 288 288 288 286 286 285 285 285 286 287 288 288 288 288 288 287 288
299 298 296 290 296 298 299 300 298 294 288 285 285 285 285 283 285 287 286 283 284 285 290 288 290 288 290 291 290 286 295 297 295 295 292 287 296 293 286 283 288 283 281 281 286 287 286 284 283 282 282 287 288 290 291 291 291 291 291 291 291 290 290 290 290 290 289 288 288 287 288 288 287 287 287 286 286 285 285 287 287 288 288 287 287 288 289
300 299 298 299 298 298 296 292 288 286 285 286 284 282 284 285 287 285 286 282 283 286 288 289 287 288 289 291 290 291 291 297 295 292 289 286 290 288 286 287 287 282 279 285 290 286 284 280 280 281 285 289 291 291 291 290 290 290 291 291 291 290 290 290 289 289 289 288 288 288 287 287 287 287 287 286 286 285 286 286 287 287 287 288 288 288 288
301 299 297 293 290 288 289 285 286 286 283 282 281 280 284 281 284 283 284 286 292 290 291 296 295 297 298 297 293 295 292 298 291 289 288 286 291 290 286 285 283 279 283 289 285 282 280 279 280 282 287 289 290 290 290 291 291 290 290 291 291 291 291 289 289 288 288 288 288 288 287 287 287 287 288 287 287 286 286 287 287 287 287 288 288 288 288
298 296 290 286 286 286 287 281 286 284 283 284 281 278 281 280 283 285 284 285 288 288 294 291 292 292 288 295 292 289 291 294 293 290 289 290 287 285 285 282 282 286 290 284 282 279 281 283 283 285 288 290 292 290 290 289 291 290 290 290 290 290 289 289 288 288 288 288 288 287 287 287 287 287 287 286 286 285 285 285 286 286 287 288 287 287 288
289 286 286 285 284 285 284 280 286 283 280 282 283 283 284 282 284 285 285 290 292 291 296 294 294 293 290 295 295 293 291 288 292 288 286 288 284 285 282 281 285 285 282 279 281 281 282 281 286 288 288 288 289 289 290 290 290 289 289 290 289 288 288 288 288 287 287 287 287 287 286 286 286 285 286 286 286 286 285 285 286 286 287 287 287 287 287
287 286 285 283 280 283 284 282 283 279 284 286 285 286 286 288 289 288 293 295 292 294 295 295 294 294 291 294 288 288 290 289 287 287 288 288 283 281 285 287 286 281 280 281 278 278 279 282 285 287 289 289 289 289 289 290 291 290 288 287 287 288 288 288 288 287 287 287 286 286 286 286 285 285 285 285 285 286 285 285 286 287 287 286 286 286 286
287 287 286 286 283 284 285 282 283 285 287 288 289 290 290 291 293 295 295 296 295 297 297 299 297 296 291 289 289 289 290 289 286 288 288 283 282 284 288 283 280 281 279 278 278 279 281 284 287 289 289 289 289 289 289 289 289 288 288 287 286 287 288 287 287 287 287 286 286 286 286 286 285 285 285 285 285 285 285 285 286 287 287 286 286 286 285
285 287 287 282 281 284 281 284 290 290 291 291 292 293 294 296 294 293 297 298 298 298 296 296 292 293 292 295 294 287 288 289 286 287 288 285 287 283 282 282 281 282 282 280 279 283 284 286 287 289 289 289 290 288 289 289 288 287 287 287 287 287 287 287 286 286 286 286 286 286 286 285 285 285 285 284 284 285 285 285 285 285 286 286 286 285 285
289 286 285 285 287 287 286 289 288 286 289 292 293 293 293 293 293 295 297 298 297 296 299 295 290 290 286 289 287 287 285 288 284 285 287 285 282 280 280 278 279 278 282 283 283 285 286 288 289 290 290 289 289 291 288 288 287 287 287 287 287 287 287 287 287 287 287 287 286 285 285 285 285 285 285 285 284 284 285 285 285 284 285 284 284 284 285
287 286 287 285 286 287 291 292 289 286 289 290 292 291 293 292 292 294 297 296 296 297 296 294 293 288 287 288 285 286 285 287 286 286 284 283 283 283 281 278 280 279 282 284 285 286 288 289 290 289 289 289 288 288 286 287 286 286 287 287 288 288 287 287 287 287 287 286 286 285 286 285 284 284 284 284 284 284 284 284 284 283 283 283 284 284 284
288 286 286 291 287 287 289 285 286 286 287 289 290 291 291 291 292 292 297 297 296 293 289 286 288 287 286 285 285 282 284 288 286 284 283 282 285 283 282 280 281 283 285 288 290 290 290 290 289 289 289 289 287 288 288 288 287 287 287 287 287 287 288 287 287 286 286 287 286 286 286 285 284 285 286 284 284 284 283 283 283 283 283 283 283 283 284
286 283 284 288 291 290 290 292 292 291 293 294 293 294 294 291 293 295 299 297 294 289 286 288 287 285 284 282 285 286 287 285 283 284 282 284 286 283 282 283 285 287 288 289 289 290 289 290 290 289 288 287 288 288 288 288 287 287 288 287 288 287 287 286 286 286 286 286 286 286 285 285 285 285 285 283 282 282 281 282 283 282 282 282 282 282 283
Wind_Speed
17 18 19 19 20 22 22 22 22 20 22 11 9 6 3 2 4 4 3 4 0 2 1 4 4 2 2 5 3 1 2 1 2 2 4 3 6 3 1 3 3 3 4 4 4 5 3 6 2 5 5 6 3 5 4 5 3 4 2 5 0 7 0 2 4 6 6 6 6 7 12 11 10 6 8 7 5 4 3 3 3 5 6 5 4 6 7
17 18 19 20 21 21 22 21 21 19 17 8 8 3 3 4 4 5 5 1 3 1 1 3 4 2 4 4 5 3 1 2 2 1 1 1 1 2 2 2 4 2 3 3 3 4 2 4 10 4 4 4 8 10 12 7 4 2 1 1 0 2 2 3 5 5 5 3 2 4 5 6 3 2 4 6 6 8 6 6 3 3 3 6 4 11 8
16 17 18 19 20 20 21 21 19 18 15 11 4 2 4 5 4 6 4 0 0 1 2 2 2 2 3 3 5 6 3 4 3 3 2 2 3 3 0 2 1 1 3 1 1 4 2 3 4 5 4 5 9 12 10 9 6 4 4 2 2 2 2 2 3 4 6 7 6 6 9 7 3 2 5 5 5 7 5 2 1 4 3 3 3 10 11
15 16 16 18 19 19 20 20 20 18 15 14 3 3 2 2 3 4 5 2 1 2 2 3 2 1 0 2 3 3 3 3 5 3 2 3 2 3 1 3 2 1 1 1 2 2 3 3 2 3 4 6 6 8 13 11 3 3 5 3 1 0 0 1 3 4 6 7 6 4 4 1 2 7 6 6 5 4 2 3 3 5 5 6 9 10 16
14 15 16 16 17 18 20 21 21 20 18 11 2 3 3 3 1 3 4 7 2 2 1 3 3 2 1 0 1 3 4 6 1 3 2 3 2 2 4 2 1 2 1 2 2 3 3 5 5 5 6 5 8 10 10 12 3 5 1 2 1 1 2 3 4 5 5 4 8 7 3 6 4 6 7 7 6 2 2 2 8 4 8 8 1 4 7
14 14 15 16 16 18 19 20 22 22 21 18 2 2 1 1 1 3 0 1 4 7 4 6 5 4 2 2 2 2 4 5 4 4 5 1 3 4 2 3 0 8 5 2 0 2 3 4 4 3 4 8 6 9 9 12 1 2 1 2 1 1 2 3 3 6 7 6 7 7 7 7 2 0 3 6 6 5 5 7 10 6 2 9 13 13 14
12 14 14 15 16 18 18 20 22 23 25 16 3 2 2 1 3 1 4 2 4 3 8 10 9 7 4 2 1 2 3 5 6 6 8 3 2 2 2 2 6 2 5 3 2 2 4 2 2 3 4 4 6 4 9 9 3 1 2 2 2 2 3 4 3 6 5 7 7 8 8 3 5 1 4 8 7 7 6 9 11 9 7 11 13 15 16
12 13 14 15 16 17 18 20 20 23 26 15 2 5 2 2 2 4 3 2 6 5 5 5 5 4 3 0 2 2 2 5 7 8 8 4 3 3 3 6 8 7 4 0 2 5 5 6 5 3 4 7 3 5 6 6 4 5 3 2 1 2 3 3 3 4 6 4 8 6 3 6 3 3 4 7 7 8 8 7 9 5 7 6 9 12 13
11 11 12 14 14 16 18 19 19 21 20 4 5 2 3 2 2 1 4 5 3 5 4 4 5 4 3 3 4 5 8 6 8 9 11 6 3 1 3 5 8 3 3 5 6 8 9 10 11 9 6 8 3 2 2 1 6 7 5 3 1 4 2 1 1 3 6 1 4 3 7 7 5 2 6 8 6 5 4 4 6 1 4 6 8 9 9
11 11 11 12 12 14 16 17 18 19 19 2 4 3 3 2 3 4 2 2 3 5 5 6 5 2 1 2 5 4 6 6 9 6 7 10 11 6 3 4 6 6 5 6 6 4 5 8 9 9 10 10 12 9 11 10 7 4 4 3 5 3 1 0 1 3 7 4 4 5 4 4 2 3 5 6 7 7 9 7 6 2 3 2 11 8 10
10 10 10 10 11 11 14 15 16 16 10 6 4 3 3 4 4 4 2 2 3 3 5 4 4 2 4 6 5 5 6 8 7 6 3 7 12 13 8 3 5 7 5 2 2 2 5 8 11 10 12 14 15 13 12 14 12 10 6 3 2 3 4 2 2 1 4 6 8 5 3 1 1 2 2 2 4 5 7 9 9 1 3 0 5 9 11
10 10 9 9 9 10 11 14 14 15 9 4 2 2 2 3 3 3 2 1 3 4 3 3 4 5 5 7 7 7 9 8 8 7 8 5 10 11 7 6 3 5 2 2 3 4 8 11 13 14 15 18 20 20 17 15 13 10 9 6 2 3 1 1 4 1 4 6 7 4 2 2 3 3 4 7 11 10 9 11 8 2 3 2 10 11 12
10 10 9 8 8 8 9 11 13 13 13 7 6 3 3 5 2 2 3 1 2 3 4 5 7 5 8 7 5 6 8 10 10 6 7 7 9 7 5 4 7 3 1 2 6 6 5 9 12 12 14 12 16 19 17 15 14 11 4 8 4 5 1 3 1 1 2 1 1 3 1 3 2 6 6 7 7 8 5 6 1 3 4 3 11 13 13
9 9 8 8 8 8 8 9 12 11 11 8 5 5 4 5 4 3 2 1 4 2 3 6 4 9 9 8 7 8 9 8 7 6 7 5 10 10 9 6 7 4 4 2 3 2 5 2 4 6 9 6 2 1 8 13 14 10 5 7 8 7 5 4 1 2 1 1 1 5 2 1 3 4 4 7 4 7 5 5 1 4 3 7 12 13 14
9 9 8 8 7 7 7 8 9 10 10 9 3 5 3 3 3 2 3 1 2 5 4 1 4 6 7 7 6 7 5 4 6 6 9 8 6 5 8 9 8 7 2 2 2 1 3 3 3 4 6 4 3 2 3 0 3 7 9 6 5 6 3 2 2 2 1 3 3 1 1 1 4 5 7 5 6 7 7 4 2 2 3 9 11 13 13
10 9 9 8 7 7 7 6 7 8 9 10 4 4 2 2 3 3 2 1 0 2 1 3 3 4 5 6 7 5 4 5 5 5 8 5 9 10 8 10 11 9 5 3 1 2 2 1 3 1 2 4 5 2 1 2 2 0 6 7 8 4 7 6 5 2 2 1 2 2 1 2 2 9 10 8 10 8 8 0 3 1 12 11 11 13 15
11 10 9 8 8 8 7 6 5 7 6 6 4 5 1 2 2 3 3 2 1 4 6 9 3 2 3 5 6 5 4 3 4 4 5 6 9 12 11 12 10 7 4 2 1 1 3 3 3 4 4 4 5 3 3 2 3 3 2 7 7 6 4 4 1 1 4 2 1 3 1 2 8 9 8 9 14 6 3 4 4 9 15 11 11 14 15
10 10 10 9 8 8 7 6 5 5 5 4 3 3 4 0 0 3 2 3 2 4 4 4 8 4 3 3 4 4 4 4 4 4 5 6 7 4 10 8 6 7 6 1 2 2 2 1 3 3 4 3 5 3 1 3 2 1 4 1 2 3 1 2 3 1 2 3 3 1 0 2 3 9 9 11 11 2 8 6 9 13 13 12 11 13 15
10 10 10 9 9 9 8 8 6 6 4 3 3 5 5 3 0 1 2 3 1 4 5 10 8 6 7 7 5 4 4 6 5 4 5 5 2 8 11 10 2 4 5 3 3 1 2 3 3 3 3 4 5 2 4 2 2 3 3 2 3 3 1 1 2 3 3 3 3 2 2 3 3 9 4 9 4 6 8 5 6 8 12 14 11 14 13
10 9 9 9 10 9 8 8 7 6 6 3 1 3 4 4 2 1 2 3 2 6 9 9 6 9 7 7 5 4 4 6 4 5 4 4 5 11 8 3 4 5 5 3 3 3 2 3 4 3 2 3 2 4 3 2 4 5 3 3 3 0 1 1 1 2 1 1 2 2 2 1 8 8 1 5 5 3 5 7 5 5 10 12 13 10 12
11 11 11 11 11 10 9 9 9 8 6 4 1 3 3 2 2 2 2 2 3 5 7 4 4 9 9 9 8 8 7 8 5 5 3 4 3 3 2 1 5 3 2 3 3 3 2 3 5 2 2 3 4 4 4 5 5 4 7 2 3 2 2 1 1 1 1 2 2 0 1 6 7 4 4 3 3 5 5 6 9 8 7 9 11 11 12
11 10 11 12 11 10 10 10 9 9 8 6 4 3 4 3 2 1 2 2 4 5 6 8 8 11 13 11 11 10 11 12 9 5 4 3 1 2 4 6 8 3 2 2 2 2 4 2 2 3 5 4 3 2 6 5 3 3 5 5 1 4 3 1 1 1 0 1 2 2 1 4 3 4 4 3 7 7 6 5 6 8 10 9 9 13 15
11 11 12 12 12 11 10 10 9 8 8 7 5 4 4 3 1 1 1 4 5 7 8 10 9 10 12 14 15 14 12 10 8 6 5 3 3 2 4 3 4 3 2 2 1 1 1 3 1 2 4 2 3 6 5 3 3 3 4 3 4 2 2 2 2 1 2 3 0 3 2 7 3 5 5 6 8 6 5 7 9 8 8 8 10 13 14
12 12 13 12 12 11 11 10 9 7 8 9 6 4 4 2 2 2 2 4 4 5 6 5 2 3 4 7 8 6 9 8 10 11 8 5 3 2 2 3 0 2 1 3 1 1 0 0 2 1 3 4 4 4 3 3 3 4 4 2 1 2 5 3 2 2 5 1 0 6 7 7 3 6 5 5 5 6 5 7 8 9 9 11 10 11 14
12 11 12 12 12 12 11 11 9 8 8 9 8 5 5 5 4 2 3 2 2 1 4 6 6 12 13 10 8 8 6 8 8 10 8 9 9 6 5 1 3 1 3 3 3 4 2 1 2 1 4 5 4 4 2 4 4 4 5 1 2 1 1 1 2 5 2 1 4 7 7 8 3 6 7 9 9 7 5 8 7 8 9 10 11 12 14
12 12 11 12 12 13 13 12 11 9 8 9 8 5 5 4 2 2 1 3 3 2 4 3 5 8 6 9 9 9 13 14 11 10 10 11 10 10 9 3 2 0 2 2 1 1 1 0 1 2 3 4 2 3 3 3 8 7 2 1 2 3 2 1 4 3 3 4 4 7 4 3 4 7 5 5 6 5 9 10 10 9 12 13 11 10 13
13 12 12 12 13 14 13 11 10 10 9 9 7 6 5 5 4 3 3 2 4 3 3 5 5 5 7 13 15 11 9 9 8 9 9 11 13 9 7 5 3 2 3 3 1 1 1 2 1 4 3 4 5 6 5 5 4 2 1 1 4 1 2 2 2 3 3 2 4 4 5 4 6 7 10 7 3 7 9 9 10 10 13 13 14 14 11
13 13 13 12 14 14 13 12 11 10 10 9 6 5 5 6 6 5 4 4 4 4 4 5 7 10 10 12 9 7 9 10 9 8 8 8 9 11 10 9 6 4 3 1 2 0 1 2 5 3 3 4 4 4 3 6 5 2 2 1 2 2 1 2 1 0 3 4 4 3 1 2 4 9 9 4 6 7 8 10 10 12 13 12 14 15 14
14 13 13 13 14 15 14 13 12 10 10 7 4 4 5 8 8 8 8 4 3 5 4 6 7 6 5 6 10 12 11 9 9 8 7 7 7 6 6 9 8 5 3 2 2 2 2 4 1 4 3 3 3 4 3 3 4 2 0 1 2 1 1 2 2 2 1 6 5 4 3 4 7 10 7 3 4 4 6 8 9 12 13 13 13 11 13
14 14 13 14 15 15 14 12 11 10 9 5 3 2 3 5 8 10 9 6 4 1 2 2 5 3 4 6 9 12 11 12 9 10 9 5 6 7 8 7 6 6 4 4 4 3 3 3 3 3 4 4 4 2 3 3 4 0 2 1 1 2 4 5 4 4 1 3 4 5 5 8 8 6 5 4 5 6 7 8 9 12 12 13 12 12 11
15 14 14 14 14 14 13 12 11 11 10 5 3 0 0 3 1 1 8 5 5 3 2 1 7 5 6 5 6 11 13 12 11 6 9 8 7 6 5 5 4 7 4 3 3 5 1 3 1 3 3 7 4 2 3 3 3 1 3 3 1 2 4 4 2 2 3 4 5 6 8 6 6 4 4 7 5 7 6 7 8 10 13 13 11 11 12
15 14 14 14 13 13 13 12 11 12 8 8 8 4 2 0 1 2 7 6 6 2 0 3 5 2 3 4 4 5 10 11 10 4 2 4 5 6 5 6 3 7 6 5 3 1 4 5 4 5 5 3 3 3 3 3 5 2 5 4 4 4 3 1 0 0 3 2 3 5 5 6 5 5 5 4 4 4 5 6 7 9 12 11 10 10 10
16 15 14 14 13 14 13 12 12 9 8 9 2 5 2 4 2 7 6 7 2 0 0 0 4 2 3 5 9 11 7 3 5 4 4 6 6 6 6 5 5 3 5 5 3 4 4 4 4 5 8 5 3 2 5 6 4 7 6 4 7 2 0 1 3 2 1 1 1 4 6 5 6 8 7 6 5 6 6 6 8 10 11 13 13 15 16
15 15 15 14 14 14 14 13 12 12 9 5 5 6 3 4 6 5 4 2 2 0 1 1 3 4 5 4 6 5 3 3 3 4 3 5 4 6 4 5 4 3 2 6 2 1 1 2 5 5 2 3 3 2 5 4 3 2 2 5 5 4 2 2 3 3 4 4 5 4 5 4 4 5 6 8 8 8 8 9 10 12 12 12 13 14 14
16 16 15 15 14 13 12 12 7 8 6 6 4 1 8 9 5 6 4 2 2 0 0 2 1 4 5 2 3 8 7 3 3 2 4 3 4 4 2 3 0 4 3 3 1 4 4 5 3 2 6 2 3 3 3 3 4 4 4 3 4 2 1 2 2 3 3 4 4 4 5 4 4 4 4 6 8 8 9 9 10 11 13 13 14 14 14
16 16 15 15 14 11 6 8 6 5 6 4 2 9 17 13 7 4 2 1 2 2 2 2 2 5 2 4 4 3 4 6 4 3 3 0 2 2 2 3 3 5 2 3 4 4 5 4 2 5 3 2 4 4 3 4 6 3 4 4 3 3 1 1 3 4 4 5 7 7 6 5 3 3 3 5 6 7 8 9 9 11 13 14 14 13 13
15 15 15 14 8 4 6 3 3 4 3 5 7 13 14 8 3 1 1 2 2 1 4 1 5 7 6 4 2 4 1 4 3 3 2 3 4 1 2 2 6 1 1 3 4 5 6 6 4 4 4 6 3 4 4 4 5 5 4 4 2 3 3 3 2 3 4 6 8 7 7 8 7 5 5 6 6 6 8 9 9 11 13 15 14 13 14
15 15 8 5 4 3 1 3 4 9 18 21 17 8 1 1 1 1 2 2 2 3 3 3 9 2 2 4 8 2 4 4 3 2 3 2 1 2 2 2 3 2 4 4 7 7 1 2 4 6 1 2 6 4 5 4 5 5 4 4 4 4 4 3 4 4 4 4 4 6 6 6 7 7 7 6 5 6 6 7 8 8 8 11 11 12 13
13 8 6 3 2 3 3 4 13 21 12 3 3 3 1 0 1 3 3 2 2 5 2 5 8 6 7 9 12 5 5 4 4 1 2 2 0 2 2 3 1 2 3 2 5 9 3 4 3 4 4 4 6 4 6 5 4 4 4 4 4 4 2 1 2 3 3 3 4 5 3 4 5 5 4 4 4 4 5 6 7 8 8 9 11 12 13
7 8 4 4 3 2 7 12 18 11 3 4 2 2 3 2 4 3 2 3 3 2 3 8 5 7 12 14 11 9 5 6 7 4 4 5 1 2 0 1 1 2 3 3 3 2 2 3 1 3 3 4 5 4 5 4 5 4 4 4 3 1 1 0 3 3 3 5 2 4 5 5 5 4 4 4 4 4 4 4 5 6 7 9 10 11 12
5 3 3 3 3 4 5 3 4 4 3 2 1 1 1 3 4 2 2 5 4 3 5 4 3 6 8 10 10 11 5 4 5 3 3 5 1 1 0 1 0 1 1 2 1 1 1 2 2 2 4 5 7 4 6 4 5 4 4 2 2 4 4 1 4 4 4 4 4 4 4 5 5 4 4 4 4 3 4 4 5 6 7 9 12 12 10
4 5 5 7 4 4 4 5 2 3 2 0 2 4 3 2 1 2 2 5 5 2 5 6 5 7 7 12 10 5 4 4 3 3 2 3 2 3 2 1 0 2 2 1 1 1 1 3 1 1 2 5 5 4 4 5 5 4 2 5 5 3 2 2 1 3 4 4 4 4 4 6 5 4 4 4 4 4 4 4 4 5 7 8 8 10 10
21 13 8 6 3 2 1 2 1 1 4 2 2 3 3 4 5 5 3 2 2 3 2 6 3 2 1 5 4 6 4 2 3 3 2 3 0 1 1 2 1 3 2 0 0 1 3 4 3 3 5 6 5 5 3 4 4 2 2 3 3 1 1 3 2 2 4 4 4 2 4 4 5 4 4 4 5 5 4 3 4 5 6 7 8 9 10
7 6 6 1 2 0 0 3 1 2 2 2 5 7 6 4 5 4 4 4 4 3 4 6 6 6 4 5 4 3 2 2 0 0 1 1 1 1 1 3 3 1 1 1 1 4 3 1 1 5 5 5 4 5 5 3 1 2 1 1 1 0 3 4 3 2 2 3 2 3 4 3 2 3 4 4 4 4 4 4 3 4 4 7 7 8 9
4 3 3 2 2 2 3 2 1 3 6 7 4 5 6 9 7 9 8 2 5 4 5 6 4 6 4 4 2 2 2 2 0 2 2 1 1 1 1 2 1 0 2 3 2 3 1 1 3 5 5 5 4 5 5 5 3 1 1 0 3 4 3 3 2 1 2 3 2 3 4 3 3 3 4 4 4 3 4 4 4 4 3 5 7 8 9
3 4 4 4 4 3 3 3 4 5 4 3 6 6 7 7 3 6 4 4 5 4 2 5 7 7 6 1 3 2 2 2 2 3 1 1 2 3 2 0 0 1 1 1 3 5 3 4 6 6 5 5 6 4 4 1 0 2 2 3 4 4 3 1 1 2 2 1 2 3 2 3 3 4 4 4 3 4 4 4 4 4 3 5 7 8 9
2 1 0 0 2 3 2 6 8 6 3 3 6 5 6 6 5 2 5 6 7 3 1 2 2 2 2 2 1 1 1 1 2 2 2 1 2 1 0 1 3 3 3 4 4 3 2 5 5 6 6 6 6 3 3 4 4 3 5 4 3 1 1 1 1 1 1 3 3 2 2 3 4 4 4 3 4 4 4 5 5 4 5 6 6 7 9
3 1 1 3 4 4 8 8 2 2 5 5 3 7 6 3 4 3 2 3 3 2 2 1 2 1 2 1 1 2 1 1 1 3 2 1 1 1 1 2 3 2 2 2 3 1 5 5 6 6 6 4 4 3 3 1 3 5 4 4 2 0 1 1 2 1 2 2 2 2 3 4 4 4 3 4 4 3 3 4 4 4 6 6 7 7 9
2 3 4 3 1 3 3 4 4 8 6 7 2 3 3 5 5 4 3 2 3 2 1 1 2 1 2 2 3 2 3 3 3 2 3 3 2 2 3 2 3 4 3 3 2 5 6 6 6 7 6 4 4 4 2 4 4 5 4 2 1 1 2 2 0 1 2 1 2 3 3 4 4 3 4 6 5 3 3 3 4 4 4 5 6 8 9
2 1 0 1 2 3 3 2 6 8 8 7 4 3 3 4 4 2 1 2 2 1 1 2 0 2 2 1 1 2 2 3 3 2 3 5 4 3 3 4 3 3 2 3 4 5 7 7 7 7 6 6 4 5 4 2 5 3 2 1 2 4 3 0 1 1 1 2 2 3 3 2 3 4 5 5 5 3 3 2 4 4 3 3 4 6 8
0 1 2 3 6 1 2 5 6 5 5 7 6 6 6 5 5 3 1 2 2 2 2 3 2 3 2 2 2 3 2 3 2 5 2 3 3 4 5 5 3 2 2 4 7 9 7 7 7 7 7 5 6 6 5 3 3 4 2 2 3 3 1 1 3 3 2 2 2 3 1 3 3 4 5 3 4 6 3 3 3 3 3 3 3 3 6
2 4 4 4 5 7 8 4 2 2 3 0 4 4 5 5 4 3 4 4 3 5 5 3 2 2 3 5 3 2 0 2 2 3 4 4 3 3 3 5 6 5 7 6 6 7 8 9 7 8 8 7 6 5 5 5 4 1 1 1 1 1 2 3 2 2 2 2 3 1 3 3 3 4 1 4 6 4 3 3 2 2 3 3 3 4 5
Wind_Direction
334 335 338 339 339 338 337 341 344 347 349 2 346 317 307 285 261 283 281 225 113 34 319 9 16 28 19 340 301 277 212 44 302 3 17 347 359 343 43 31 351 29 24 10 359 7 303 270 258 343 338 322 10 337 318 161 269 220 266 2 313 358 155 335 276 291 306 317 143 83 53 24 7 15 18 18 9 355 299 276 291 279 293 310 312 276 266
331 333 336 338 338 337 335 338 342 344 3 352 314 310 329 310 286 309 268 31 101 61 23 336 346 335 13 356 314 302 259 121 248 70 22 47 325 346 345 27 82 274 32 25 344 345 342 334 7 328 351 301 323 328 303 201 235 226 242 97 211 43 310 15 314 329 318 309 10 38 90 74 111 311 325 328 330 327 322 299 281 278 222 235 254 265 278
330 332 334 337 337 334 334 335 337 343 349 354 330 338 314 286 255 220 275 19 127 98 326 73 341 41 338 346 315 357 305 12 35 107 320 32 52 5 242 198 209 315 51 321 280 264 248 287 298 278 289 295 312 289 311 341 322 59 53 342 27 211 240 7 333 337 330 330 336 329 331 338 313 216 281 303 317 316 330 330 323 284 193 243 257 276 287
329 330 333 335 336 333 333 332 333 338 345 347 327 285 314 332 353 311 332 5 30 76 18 44 4 32 110 349 284 314 321 25 108 328 7 134 182 170 242 216 158 54 48 321 227 266 253 256 284 323 283 284 290 341 342 325 54 23 24 24 81 245 320 222 247 225 227 230 245 250 214 331 319 303 308 333 335 348 333 208 252 257 278 280 242 257 290
327 328 332 334 335 334 333 332 333 334 338 344 292 270 207 300 296 357 329 325 5 71 117 29 45 334 41 12 343 351 348 340 281 32 314 48 336 253 207 208 105 293 87 245 281 230 264 238 262 265 284 334 314 328 323 316 65 355 290 182 96 165 285 248 256 270 257 255 264 266 253 270 253 284 311 327 321 322 275 216 266 268 305 280 221 232 291
324 326 329 333 334 335 333 332 334 333 332 337 247 316 259 317 350 64 0 190 298 357 353 355 326 306 344 253 248 31 0 348 339 319 312 70 17 9 326 353 144 175 184 137 252 283 278 296 276 315 323 317 318 324 310 302 231 255 282 85 113 101 285 265 276 273 263 271 292 291 280 251 234 275 324 315 315 316 301 275 273 281 220 280 298 310 301
320 325 328 331 334 335 335 335 336 336 331 336 195 2 328 44 320 51 23 2 317 309 284 300 280 299 263 250 50 45 356 335 341 335 318 22 335 334 330 291 328 181 188 144 244 290 326 286 248 290 299 283 311 295 310 293 313 189 348 280 141 84 248 257 259 287 299 296 288 280 274 341 72 53 339 304 298 290 279 282 286 302 287 276 289 294 291
317 324 327 329 334 337 337 338 341 338 337 327 100 42 354 32 354 324 351 285 284 288 312 297 298 282 328 97 12 341 16 354 347 331 338 346 328 33 309 1 352 346 2 317 270 248 215 232 276 258 276 290 232 250 230 271 296 331 301 335 61 107 257 335 329 315 292 291 278 289 58 103 125 68 276 285 300 301 283 276 285 300 274 271 282 290 291
314 319 324 327 332 338 337 341 342 341 343 357 18 83 26 300 314 326 318 318 299 322 307 322 312 307 12 41 336 342 11 354 341 330 327 301 307 340 316 336 305 304 315 301 277 267 265 264 253 257 257 272 259 286 269 290 307 302 284 295 177 117 256 14 265 326 295 239 300 352 98 90 104 319 282 286 299 295 287 288 281 341 279 283 313 312 327
307 313 319 323 330 337 337 340 343 349 339 3 352 38 312 324 318 333 292 283 318 315 319 312 324 13 302 333 353 356 341 331 344 332 307 329 330 312 305 286 294 277 255 259 257 281 307 304 299 290 280 268 274 254 265 272 266 270 282 270 268 164 161 345 357 314 269 296 322 323 115 79 32 324 266 264 267 252 273 275 283 223 186 9 338 301 303
302 307 311 319 325 334 337 338 343 356 360 29 352 11 5 24 336 338 291 306 298 325 330 303 350 32 326 349 341 341 319 334 337 322 298 323 308 310 316 304 281 284 262 250 279 307 290 284 286 281 271 266 263 259 251 253 251 245 251 270 218 144 161 216 111 204 289 325 317 335 3 42 176 244 261 264 251 283 292 294 295 66 140 68 269 280 295
295 298 303 311 319 330 337 335 341 352 6 328 263 283 4 305 307 240 304 12 280 313 342 293 351 327 337 358 350 330 324 326 317 296 294 302 295 291 299 296 292 271 324 354 341 331 305 285 269 261 253 251 251 251 246 246 246 237 225 227 248 255 186 156 156 256 297 326 327 336 316 115 271 269 288 253 256 264 260 270 283 146 198 290 314 311 317
285 289 297 303 309 321 331 333 339 346 1 349 339 5 351 353 302 307 299 315 275 336 331 315 327 330 6 348 347 318 308 297 289 306 323 302 293 303 311 302 308 223 286 31 354 331 309 296 294 278 272 261 243 236 235 230 234 235 74 68 66 302 206 77 21 160 307 296 50 349 217 191 252 259 228 253 237 245 277 291 221 138 200 286 321 316 315
280 284 285 293 300 307 320 330 331 341 358 3 343 330 357 13 1 336 6 31 299 289 348 314 343 355 345 341 323 304 299 302 336 352 309 315 316 313 308 0 11 1 338 16 310 301 320 327 317 347 316 306 38 38 216 220 224 221 185 181 174 182 111 123 250 176 195 250 258 241 96 246 340 343 354 337 342 331 338 299 272 211 213 337 326 313 319
269 275 281 282 290 298 308 321 323 334 344 354 318 301 18 6 354 332 315 302 282 289 258 330 336 328 328 309 321 311 311 338 353 319 316 301 295 314 319 335 344 322 358 5 317 286 242 291 322 344 308 352 19 308 141 354 170 167 181 176 167 138 125 203 97 276 311 322 322 318 194 255 327 290 283 287 310 311 289 184 282 176 272 335 322 321 323
260 263 266 271 277 283 291 292 313 326 338 347 319 309 62 350 309 285 286 334 352 328 81 323 311 324 322 302 296 324 347 350 339 321 307 312 304 325 318 350 332 311 289 251 229 283 284 277 272 303 282 312 303 334 335 29 39 218 163 148 110 66 102 130 127 226 337 257 224 254 290 134 242 310 314 321 322 314 307 248 261 302 346 328 329 325 326
253 256 258 260 262 268 281 290 299 305 332 5 335 323 322 16 347 342 326 275 172 228 306 295 299 354 319 304 357 352 9 332 329 327 315 319 329 316 329 337 312 300 323 20 315 0 342 306 291 261 264 292 311 3 3 47 315 315 30 122 97 92 105 99 67 234 217 227 263 282 105 59 330 324 327 342 320 339 4 35 300 344 328 328 331 329 326
249 250 253 255 257 260 262 267 273 290 301 335 322 320 320 2 346 335 270 278 297 285 256 2 2 312 292 319 297 290 294 279 297 310 281 300 305 325 339 332 321 325 355 13 318 328 291 285 306 306 290 315 327 349 77 287 287 287 319 72 165 138 10 83 198 257 306 296 281 96 71 254 309 332 328 346 324 359 29 1 311 315 315 324 329 325 325
241 242 242 249 253 253 253 260 268 274 288 315 332 295 256 247 179 264 315 306 307 261 292 323 305 277 276 286 254 265 269 289 283 272 288 320 316 349 331 284 304 325 349 318 353 312 320 294 322 319 329 328 352 22 325 342 313 334 338 8 25 15 359 293 33 14 331 289 346 264 155 237 304 335 355 348 345 28 348 279 264 297 323 323 330 326 324
235 237 239 240 243 247 251 253 251 245 253 282 314 284 311 312 313 351 324 312 304 281 292 285 276 300 348 328 321 321 331 318 305 302 317 286 359 355 343 1 347 359 330 24 29 311 352 326 332 325 306 334 310 350 330 321 348 321 318 42 89 0 61 289 26 305 311 9 336 325 351 310 346 326 315 31 57 320 251 291 311 331 319 319 320 328 330
233 236 239 238 238 242 245 246 243 240 241 246 217 286 293 214 218 204 232 289 308 298 291 285 339 324 310 293 276 277 265 258 275 299 331 322 348 28 338 276 321 348 316 27 337 321 341 318 352 315 326 333 327 355 343 330 325 327 66 66 113 243 77 354 352 143 245 332 0 73 250 280 307 40 27 343 34 307 316 338 333 329 320 320 326 331 333
227 226 228 234 237 237 240 240 241 240 232 224 203 266 263 253 212 187 210 176 242 233 252 304 304 285 277 266 260 247 251 254 262 280 295 287 293 297 268 304 295 291 348 356 10 353 9 337 329 356 339 320 329 316 331 340 308 295 31 24 28 340 116 220 231 267 115 254 150 283 180 291 294 73 23 5 353 336 338 349 326 325 325 329 335 329 328
225 222 225 230 233 234 232 234 235 234 229 215 198 241 259 319 63 143 326 264 239 254 268 275 273 271 271 263 247 236 229 229 246 244 232 235 292 247 253 283 305 321 357 56 52 266 278 51 267 313 312 264 336 316 321 290 280 17 0 26 137 79 103 223 215 314 279 38 54 83 15 353 351 56 46 16 344 325 344 345 334 330 320 338 337 326 328
221 222 226 229 231 231 230 231 229 225 226 219 208 243 243 260 318 354 271 248 265 294 283 236 245 282 263 288 298 201 210 222 216 223 213 194 210 283 277 240 336 330 19 337 132 215 299 166 245 11 263 266 307 295 299 318 307 330 359 349 84 86 25 27 32 297 312 107 221 26 9 344 9 33 21 5 329 322 340 344 331 324 332 337 333 332 328
219 219 220 226 229 229 228 227 226 224 218 219 216 252 283 297 289 247 268 299 312 317 281 322 287 248 259 268 291 293 196 212 218 219 206 195 202 207 231 130 70 29 288 300 329 15 29 15 327 313 291 291 316 276 274 305 283 35 330 322 40 316 36 72 334 304 308 320 35 15 4 331 6 42 6 340 329 329 350 341 324 329 336 337 332 333 328
217 216 216 215 221 226 225 223 221 220 214 212 217 229 229 247 261 217 260 274 262 245 273 268 281 305 318 340 310 285 298 294 275 262 222 215 206 208 231 274 271 129 252 259 311 188 170 222 267 261 265 280 265 285 302 319 289 291 260 154 191 223 312 66 321 327 331 334 12 2 336 278 26 359 329 299 304 334 345 336 335 338 340 333 334 341 329
214 214 213 211 216 221 222 219 216 214 209 207 211 226 254 270 270 250 227 272 309 283 186 253 266 278 7 317 289 292 275 268 256 243 243 207 212 211 219 227 241 251 252 275 226 185 122 203 165 266 243 263 329 292 289 291 292 320 61 356 329 354 84 317 25 12 330 324 316 9 8 317 329 322 310 301 327 359 344 337 339 346 341 334 336 336 336
213 213 211 210 213 218 220 216 216 209 206 200 206 227 244 252 256 262 243 222 204 259 307 290 306 296 306 269 269 280 294 289 275 244 217 227 216 218 203 199 194 212 224 188 324 0 260 254 256 235 240 264 274 294 276 275 279 65 20 73 291 90 323 64 138 172 259 288 328 41 78 291 277 289 296 345 13 357 352 344 342 345 340 336 338 334 335
211 211 211 211 213 216 217 215 213 209 198 192 204 229 250 247 252 244 243 213 222 268 270 279 285 287 285 301 314 294 283 267 249 253 240 190 214 222 198 188 195 185 193 159 170 175 201 231 245 271 256 295 342 264 351 324 314 247 187 42 71 203 217 37 6 321 289 16 10 21 7 301 290 288 296 358 356 6 353 348 351 350 338 337 334 336 336
208 209 210 212 216 217 217 214 208 199 184 179 190 242 289 275 212 218 203 213 179 201 268 311 299 266 318 318 290 293 292 288 274 240 226 196 214 213 219 206 203 192 167 172 147 220 212 222 229 237 245 243 244 285 260 241 263 180 254 54 15 18 53 53 37 44 39 346 351 333 314 291 281 294 326 348 5 21 7 357 355 343 334 336 334 339 346
207 207 208 212 213 215 215 214 205 190 167 180 160 148 152 268 9 126 169 180 156 181 231 199 254 312 297 221 246 274 283 283 280 244 198 201 213 219 215 207 203 164 182 176 167 217 151 232 218 252 239 239 226 225 251 267 268 152 249 168 242 99 78 62 12 42 68 18 340 324 306 296 302 328 347 350 360 12 8 355 350 343 338 339 339 346 343
205 203 205 205 206 208 212 213 208 186 182 176 194 195 204 187 309 110 145 145 131 167 62 318 303 267 278 286 253 270 277 281 283 283 219 168 212 208 230 209 226 174 163 180 199 162 223 203 203 244 250 242 257 262 261 256 264 184 218 202 136 94 104 139 283 318 102 48 331 315 311 309 322 352 323 326 351 9 7 352 351 348 346 337 336 342 335
203 204 202 201 201 205 208 209 205 192 195 206 115 87 172 254 124 104 114 118 97 245 233 210 256 308 274 290 308 287 243 236 237 210 249 181 212 172 222 196 223 242 159 148 180 210 201 180 194 231 241 221 219 217 238 240 223 175 198 117 117 136 66 315 179 206 130 46 338 307 296 319 338 340 331 342 356 3 355 6 359 356 347 342 343 343 343
203 201 199 197 199 201 205 204 202 201 213 198 222 221 136 141 126 115 114 97 104 202 89 195 270 254 267 314 285 281 309 283 242 166 256 200 186 171 196 177 179 197 197 186 215 217 260 171 210 231 247 224 189 191 240 234 139 105 91 91 78 56 40 45 33 34 6 2 355 325 321 337 343 343 353 357 357 358 8 6 3 357 350 346 345 344 343
199 198 196 193 193 195 195 194 199 205 208 210 239 145 143 170 161 155 159 125 85 268 137 240 223 289 301 274 254 286 289 275 270 201 216 235 156 187 154 204 121 189 253 174 235 179 220 213 187 214 236 174 159 222 217 164 138 147 107 79 81 96 54 30 337 26 26 1 316 305 299 316 329 347 348 351 356 359 9 3 2 358 349 345 343 342 346
196 194 192 188 183 178 188 202 208 195 211 201 172 147 157 163 159 155 205 318 177 233 204 225 195 232 229 281 297 287 3 313 267 271 251 240 200 212 170 135 226 224 201 159 224 190 218 180 163 243 205 197 216 193 201 155 156 138 109 106 94 88 67 46 1 7 346 300 277 271 286 297 320 343 19 11 358 6 7 0 359 358 347 341 341 339 343
188 187 183 177 160 167 203 204 139 191 228 125 127 127 123 112 57 24 244 223 214 137 227 234 232 220 196 267 306 265 282 280 321 312 238 190 211 199 178 158 227 186 175 214 222 226 231 155 178 218 203 214 220 139 121 101 107 112 109 108 93 73 50 36 21 345 310 317 331 344 345 338 344 1 20 12 3 8 4 2 0 356 348 341 338 341 341
179 172 157 170 153 162 200 210 181 130 114 113 115 98 50 124 120 276 229 220 214 176 221 200 246 205 205 238 237 259 2 273 353 311 295 234 175 217 163 184 223 153 221 202 222 206 191 169 212 217 269 70 122 121 109 107 106 103 113 96 76 72 66 36 351 334 329 329 339 339 348 1 12 6 5 359 6 8 8 359 355 351 345 338 334 337 333
166 159 157 188 169 184 171 140 128 123 111 110 49 87 89 240 138 225 207 176 203 218 177 206 235 165 207 235 253 254 250 304 329 293 282 287 149 283 124 204 247 185 252 235 265 149 224 216 210 192 166 179 131 126 116 107 107 113 102 103 103 95 87 329 274 280 323 326 303 314 345 22 6 350 350 359 359 11 12 359 351 347 344 337 336 336 331
152 167 167 166 201 130 102 125 124 107 71 59 3 95 161 173 194 220 127 192 220 204 185 235 211 209 203 217 239 262 184 215 220 226 221 292 245 220 252 261 272 127 237 180 247 159 218 254 160 167 150 167 136 145 123 151 135 128 104 102 114 135 96 42 353 333 302 284 333 16 3 5 5 354 344 353 6 1 356 355 346 340 343 343 336 332 329
161 124 135 135 127 111 95 104 26 52 77 102 87 330 174 202 201 249 196 223 218 227 181 226 165 206 214 225 222 248 222 205 241 240 265 257 288 342 17 221 130 277 240 235 276 141 189 210 209 199 177 167 138 156 136 135 114 113 130 154 118 91 66 5 284 292 333 0 3 4 360 355 352 351 354 357 0 359 350 343 343 345 349 348 338 332 330
142 116 106 91 74 79 71 34 52 86 62 179 165 208 190 245 136 223 220 221 210 205 202 180 220 205 217 195 204 210 246 228 237 199 198 257 221 202 240 240 292 206 248 205 351 314 302 269 193 114 228 127 140 148 148 129 129 135 149 103 97 130 220 267 350 14 26 12 356 358 357 351 343 358 9 6 356 346 349 345 353 357 354 343 333 329 335
98 96 84 83 48 23 37 100 311 123 144 142 155 237 180 217 201 195 198 222 225 227 205 169 234 205 201 135 199 195 229 173 206 223 201 244 264 175 233 237 226 244 235 40 204 248 248 253 255 172 172 141 159 138 138 115 122 124 142 144 140 127 104 94 69 26 8 351 329 353 14 349 341 349 13 14 352 338 349 4 10 358 347 340 339 338 341
86 69 68 33 91 252 180 178 143 116 214 195 179 205 172 209 203 179 217 196 172 224 212 189 204 201 228 179 169 157 222 287 196 33 252 239 244 226 213 227 218 261 40 284 237 249 242 30 105 161 149 138 152 135 121 105 133 159 145 120 128 127 63 42 40 25 345 312 328 11 345 319 333 358 1 0 341 336 343 352 0 348 335 340 339 342 342
84 62 90 112 135 175 139 211 141 198 215 200 202 216 189 215 192 189 207 155 156 208 185 219 238 228 229 160 181 211 139 211 65 135 232 175 243 225 221 244 240 187 210 244 238 253 212 169 150 129 141 154 131 126 125 155 136 123 174 173 85 82 68 53 36 336 288 294 357 6 325 338 14 12 353 337 325 348 352 336 331 340 345 350 351 348 345
109 160 147 148 160 212 209 190 148 211 233 215 209 202 219 222 173 199 184 146 186 237 223 197 218 229 241 153 144 192 160 146 128 220 240 228 232 237 203 174 74 285 255 215 239 238 227 168 164 154 155 141 131 121 116 90 204 203 119 94 67 54 61 333 273 292 289 29 359 335 344 7 7 14 335 315 336 0 348 343 340 345 0 6 4 354 344
80 14 98 187 178 176 191 209 203 205 182 198 222 221 215 228 241 209 169 163 183 177 212 303 255 210 162 195 158 297 192 134 200 206 159 233 208 270 109 154 224 195 215 237 236 243 147 178 154 131 123 119 115 118 135 202 215 125 98 95 85 97 260 278 299 286 346 17 348 356 6 346 356 346 320 345 351 354 351 356 336 351 24 12 8 350 337
154 172 166 198 206 168 204 226 257 263 232 240 217 208 226 190 144 157 158 125 136 116 215 276 304 296 264 266 147 203 222 160 188 256 181 225 180 240 227 218 231 232 223 220 242 92 123 148 120 117 113 120 121 157 218 235 98 95 97 100 93 22 22 331 307 334 25 353 313 347 12 5 353 320 333 353 350 337 355 346 343 19 21 16 5 347 336
122 154 179 223 218 194 225 221 195 237 236 237 212 91 121 150 171 146 136 101 109 148 127 181 232 88 252 181 166 165 218 183 208 215 169 208 221 203 183 225 205 233 219 177 150 139 133 118 119 118 134 158 162 170 109 74 85 82 82 72 61 3 263 257 43 331 313 314 18 40 26 339 316 351 4 342 324 313 340 0 35 36 26 14 357 345 335
127 238 252 233 258 263 245 218 188 231 226 227 174 199 143 133 148 200 88 103 117 87 13 350 305 198 237 157 188 174 221 186 194 226 230 219 206 212 219 242 218 206 235 128 141 141 132 140 140 152 163 184 157 112 101 119 118 135 150 160 219 221 233 192 266 302 9 20 46 32 347 342 13 9 337 312 311 337 348 35 49 35 27 20 7 348 337
268 250 252 210 211 247 133 210 223 238 220 219 196 188 168 187 167 208 137 105 110 150 201 207 196 195 200 183 197 200 218 153 195 219 212 217 191 209 218 229 227 199 162 141 134 144 156 150 165 169 179 166 141 143 138 141 132 129 132 175 237 250 254 39 42 46 16 350 353 314 353 51 11 322 299 323 353 326 328 26 32 38 39 24 357 350 345
181 201 225 221 219 246 263 309 9 273 325 346 172 202 148 191 176 184 144 139 155 201 212 183 197 182 199 209 201 221 169 147 213 163 203 227 206 219 214 202 219 202 149 159 137 160 156 163 153 121 115 108 107 114 112 105 104 107 146 241 250 54 42 49 34 10 339 319 303 10 67 22 327 297 322 5 331 324 11 339 323 49 50 19 354 6 352